Regional Weather Roundup
Issued by NWS Burlington, VT

Home | Current Version | Previous Version | Text Only | Print | Product List | Glossary On
Versions: 1 2 3 4 5 6 7 8 9 10 11 12 13 14 15 16 17 18 19 20 21 22 23 24 25 26 27 28 29 30 31 32 33 34 35 36 37 38 39 40 41 42 43 44 45 46 47 48 49 50
000
ASUS41 KBTV 280710
RWRBTV
VERMONT REGIONAL WEATHER ROUNDUP
NATIONAL WEATHER SERVICE BURLINGTON VT
300 AM EDT FRI APR 28 2017

NOTE: "FAIR" INDICATES FEW OR NO CLOUDS BELOW 12,000 FEET WITH NO
SIGNIFICANT WEATHER AND/OR OBSTRUCTIONS TO VISIBILITY.

* THESE REPORTS ARE NOT UNDER NWS QUALITY CONTROL AND/OR DO NOT
  REPORT WEATHER SUCH AS PRECIPITATION AND FOG.

VTZ001>019-280800-
_____VERMONT_____


CITY           SKY/WX    TMP DP  RH WIND       PRES   REMARKS
BURLINGTON     MOCLDY    66  58  75 S15G23    29.79R
MONTPELIER     CLOUDY    60  57  89 CALM      29.89R
MORRISVILLE    PTCLDY    59  54  83 S5        29.84S
ST. JOHNSBURY*   N/A     61  56  83 MISG      29.85R
LYNDONVILLE*   CLOUDY    60  55  85 SE8       29.88R
MIDDLEBURY*    CLOUDY    65  57  76 S9        29.84R
RUTLAND*       CLOUDY    62  57  83 SE9       29.85R
SPRINGFIELD    CLOUDY    60  56  86 S7        29.87S
HIGHGATE*      MOCLDY    65  58  76 S10G17    29.77R
NEWPORT*       FAIR      59  55  86 S7        29.83S
BENNINGTON     MOCLDY    62  56  80 CALM      29.85R

_____LAKE CHAMPLAIN_____


CITY           SKY/WX    TMP DP  RH WIND       PRES   REMARKS

$$

NYZ007-026>031-035-052-083-087-280800-
_____NORTHERN NEW YORK_____


CITY           SKY/WX    TMP DP  RH WIND       PRES   REMARKS
PLATTSBURGH    CLOUDY    57  52  83 SE6       29.77R
SARANAC LAKE   CLOUDY    60  56  86 SW7       29.82R
MASSENA        LGT RAIN  63  60  90 S8        29.76R
OGDENSBURG*    MOCLDY    62  60  94 S9        29.76R
WATERTOWN      CLOUDY    60  59  96 S8        29.80R
ALBANY         CLOUDY    62  57  83 S13       29.85R
GLENS FALLS    CLOUDY    63  57  81 S10       29.84R

$$
NHZ002-005-011-280800-
_____NEW HAMPSHIRE_____


CITY           SKY/WX    TMP DP  RH WIND       PRES   REMARKS
LEBANON        CLOUDY    62  58  86 S8        29.86R
KEENE          CLOUDY    61  57  88 S6        29.90
MT WASHINGTON  DRZL/FOG  45  45 100 W46G53      N/A  VSB 0
PLYMOUTH       CLOUDY    56  55  95 CALM      29.90R FOG
WHITEFIELD     CLOUDY    59  52  77 NW3       29.86S

$$

_____REGIONAL QUEBEC LOCATIONS_____


CITY           SKY/WX    TMP DP  RH WIND       PRES   REMARKS
MONTREAL       CLOUDY    50  46  87 N8        29.76R
QUEBEC CITY    CLOUDY    37  36  93 E16G23    29.89R WCI  28
SHERBROOKE     MOCLDY    59  54  82 E7        29.80F

_____REGIONAL ONTARIO LOCATIONS_____


CITY           SKY/WX    TMP DP  RH WIND       PRES   REMARKS
OTTAWA         MOCLDY    61  61 100 S6        29.72R

______KEY______
VSB  - VISIBILITY IN MILES
WCI  - WIND CHILL INDEX
HX   - HEAT INDEX
$$
NNNN



USA.gov is the U.S. government's official web portal to all federal, state and local government web resources and services.